Regional Weather Roundup
Issued by NWS

Home | Current Version | Previous Version | Graphics & Text | Print | Product List | Glossary Off
Versions: 1 2 3 4 5 6 7 8 9 10 11 12 13 14 15 16 17 18 19 20 21 22 23 24 25 26 27 28 29 30 31 32 33 34 35 36 37 38 39 40 41 42 43 44 45 46 47 48 49 50

000
ASUS43 KMPX 221701
RWRMN
WEATHER ROUNDUP FOR MINNESOTA
NATIONAL WEATHER SERVICE TWIN CITIES/CHANHASSEN MN
1200 PM CDT THU JUN 22 2017


NOTE: "FAIR" INDICATES FEW OR NO CLOUDS BELOW 12,000 FEET WITH NO
SIGNIFICANT WEATHER AND/OR OBSTRUCTIONS TO VISIBILITY. N/A MEANS
CURRENT SKY AND/OR WEATHER CONDITIONS ARE NOT AVAILABLE.

MNZ060>063-068>070-221800-
   Twin Cities Metro

CITY           SKY/WX    TMP DP  RH WIND       PRES   REMARKS
TWIN CITIES    CLOUDY    69  64  84 VRB5      29.73F
ST PAUL        LGT RAIN  67  66  97 NE6       29.74F
CRYSTAL        LGT RAIN  67  62  84 SE6       29.72F
BLAINE         CLOUDY    68  68 100 CALM      29.76R
LAKEVILLE      LGT RAIN  68  68 100 E10       29.68F
EDEN PRAIRIE   CLOUDY    69  65  86 NE7       29.70F
SOUTH ST PAUL  LGT RAIN  68  68  99 E6        29.72F
LAKE ELMO      RAIN      66  63  88 E3        29.75F
$$
MNZ001>005-007-008-013>017-022>024-027-028-221800-
   Northwest Minnesota

CITY           SKY/WX    TMP DP  RH WIND       PRES   REMARKS
BEMIDJI        CLOUDY    69  47  44 W12G17    29.72R
HALLOCK        SUNNY     72  48  43 W10       29.65F
ROSEAU         SUNNY     68  50  52 W8        29.66F
WARROAD        MOSUNNY   66  48  52 W10       29.66F
CROOKSTON      SUNNY     72  52  49 W16       29.69F
FOSSTON        SUNNY     68  50  52 W10       29.72S
DETROIT LAKES  CLOUDY    72  45  37 NW13G21   29.75R
MOORHEAD       PTSUNNY   73  48  40 NW13G20   29.73S
PARK RAPIDS    CLOUDY    74  43  32 NW8       29.72R
MAHNOMEN       FAIR      70  50  50 NW10      29.73R
$$
MNZ006-009>011-018-025>026-221800-
   North Central Minnesota

CITY           SKY/WX    TMP DP  RH WIND       PRES   REMARKS
BAUDETTE       MOSUNNY   69  49  48 W12G17    29.66F
FLAG ISLAND    PTSUNNY   66  45  45 SW10      29.62F
INTL FALLS     MOSUNNY   69  46  43 W8        29.66R
WASKISH        CLOUDY    66  52  59 W9        29.69S
BIG FORK       CLOUDY    70  48  46 W5        29.69S
LONGVILLE      CLOUDY    70  46  43 NW5       29.72R
GRAND RAPIDS   CLOUDY    68  50  52 W8        29.72S
CRANE LAKE     CLOUDY    70  43  37 W9        29.68R
ORR            CLOUDY    70  46  43 W6        29.66R
COOK           CLOUDY    70  48  46 W7        29.69R
WALKER         FAIR      71  47  42 W12       29.71R
$$
MNZ012-019>021-037-221800-
   Northeast Minnesota

CITY           SKY/WX    TMP DP  RH WIND       PRES   REMARKS
DULUTH         CLOUDY    69  52  54 W7        29.69F
ELY            CLOUDY    70  50  49 W10G16    29.67R
HIBBING        PTSUNNY   69  50  50 W7        29.69S
EVELETH        CLOUDY    70  38  30 NW9       29.70S
DULUTH HARBOR  CLOUDY    73  55  53 W6        29.68F
TWO HARBORS    PTSUNNY   73  57  56 W3        29.67S
SILVER BAY     CLOUDY    72  52  49 NW3       29.65F
GRAND MARAIS     N/A     50  47  89 SW14      29.65R
G MARAIS ARPRT CLOUDY    68  46  45 W6        29.68R
$$
MNZ029>031-032-039>041-046>048-054>057-064-221800-
   West Central Minnesota

CITY           SKY/WX    TMP DP  RH WIND       PRES   REMARKS
FERGUS FALLS   CLOUDY    70  54  56 NW8       29.73S
WHEATON        CLOUDY    70  54  56 NW6       29.78S
MORRIS         CLOUDY    63  57  82 S5        29.74F
ALEXANDRIA     CLOUDY    68  52  56 SE3       29.77R
ELBOW LAKE     FAIR      69  58  69 CALM      29.76R
WADENA         CLOUDY    68  54  60 CALM      29.74R
GLENWOOD       PTSUNNY   61  55  82 CALM      29.76S
APPLETON       CLOUDY    63  57  82 W7        29.77F
BENSON         DRIZZLE   61  57  88 NE6       29.73F
ORTONVILLE     CLOUDY    61  57  88 W3        29.78R
MADISON        RAIN      64  63  94 W3        29.78R
WILLMAR        HVY RAIN  61  61 100 NE15      29.72F
$$
MNZ033>034-036-042>043-049>051-058-059-221800-
   Central Minnesota

CITY           SKY/WX    TMP DP  RH WIND       PRES   REMARKS
ST CLOUD       CLOUDY    60  59  96 CALM      29.73F
SAUK CENTRE    FAIR      61  56  84 S5        29.77R
PAYNESVILLE    CLOUDY    60  60 100 SW6       29.79R
AITKIN         PTSUNNY   66  55  68 CALM      29.71S
PINE RIVER     CLOUDY    68  57  68 S6        29.77R
BRAINERD       CLOUDY    69  56  62 SW6       29.74R
STAPLES        CLOUDY    68  50  52 CALM      29.74S
LONG PRAIRIE   FAIR      64  57  77 CALM      29.76R
LITTLE FALLS   CLOUDY    64  55  72 CALM      29.74F
LITCHFIELD     CLOUDY    63  61  94 NW5       29.74S
BUFFALO        LGT RAIN  64  60  89 NE9       29.67F
MAPLE LAKE     LGT RAIN  64  62  94 NE6       29.71F
HUTCHINSON     PTSUNNY   66  62  85 E8        29.72F
$$
MNZ037-044-045-052-053-221800-
   East Central Minnesota

CITY           SKY/WX    TMP DP  RH WIND       PRES   REMARKS
PRINCETON      LGT RAIN  63  59  88 SE3       29.73F
MORA           CLOUDY    63  59  88 SW6       29.75R
CAMBRIDGE      RAIN      64  57  77 E5        29.70F
RUSH CITY      LGT RAIN  64  61  88 S6        29.76R
MOOSE LAKE     CLOUDY    68  55  64 SW5       29.70S
HINCKLEY       FAIR      66  63  88 S9        29.75R
CLOQUET        CLOUDY    70  45  40 W6        29.70F
MCGREGOR       CLOUDY    68  54  60 CALM      29.73S
$$
MNZ071>073-080-081-089-090-097-098-221800-
   Southwest Minnesota

CITY           SKY/WX    TMP DP  RH WIND       PRES   REMARKS
MONTEVIDEO     LGT RAIN  63  61  94 SW3       29.75F
GRANITE FALLS  DRIZZLE   66  63  90 NW7       29.75F
CANBY          CLOUDY    63  61  91 CALM      29.78R
MARSHALL       CLOUDY    67  62  84 N8        29.75R
REDWOOD FALLS  RAIN      68  63  84 NE5       29.71R
OLIVIA         CLOUDY    68  61  77 NE5       29.72R
PIPESTONE      PTSUNNY   73  63  68 E10       29.72R
WINDOM         PTSUNNY   72  66  83 E9        29.69F
WORTHINGTON    CLOUDY    75  64  68 E17       29.71F
JACKSON        PTSUNNY   72  68  88 E16       29.70F
TRACY          CLOUDY    70  66  87 NE6       29.74R
SLAYTON        PTSUNNY   71  61  69 E15G22    29.72F
$$
MNZ065>067-074>077-082>085-091>093-221800-
   South Central Minnesota

CITY           SKY/WX    TMP DP  RH WIND       PRES   REMARKS
MANKATO        CLOUDY    72  68  87 E14       29.68F
NEW ULM        CLOUDY    70  64  83 E8        29.69F
ST JAMES       PTSUNNY   73  70  88 E9        29.70F
FAIRMONT       MOSUNNY   75  69  81 E10       29.71F
GLENCOE        CLOUDY    68  67  97 E8        29.69F
FARIBAULT      CLOUDY    70  68  94 N3        29.75F FOG
OWATONNA       CLOUDY    70  64  83 N7        29.75F THUNDER
WASECA         TSTM      70  68  94 E8        29.74F
ALBERT LEA     CLOUDY    70  68  94 CALM      29.75F
$$
MNZ078>079-086>088-094>096-221800-
   Southeast Minnesota

CITY           SKY/WX    TMP DP  RH WIND       PRES   REMARKS
ROCHESTER      LGT RAIN  66  65  96 W12       29.79R
RED WING       LGT RAIN  70  66  88 NE8       29.73S
STANTON        CLOUDY    70  67  91 N5        29.74F
DODGE CENTER   LGT RAIN  66  64  94 SE8       29.76R
WINONA         TSTM      70  66  88 SE12      29.70F
AUSTIN         CLOUDY    68  64  88 W3        29.75R THUNDER
PRESTON        TSTM      65  64  93 S10       29.70F
$$
ABBREVIATIONS USED IN REMARKS
   TC - TEMPERATURES IN CELSIUS
  WCI - WIND CHILL INDEX
   HX - HEAT INDEX
  VSB - VISIBILITY
$$




USA.gov is the U.S. government's official web portal to all federal, state and local government web resources and services.